Time,TemperatureF,DewpointF,PressureIn,WindDirection,WindDirectionDegrees,WindSpeedMPH,WindSpeedGustMPH,Humidity,HourlyPrecipIn,Conditions,Clouds,dailyrainin,SoftwareType,DateUTC
2013-02-26 00:00:00,35.7,25.5,30.12,NNE,27,0.0,0.0,66,0.00,,OVC250,0.00,VWS V14.01,2013-02-26 05:00:00,
2013-02-26 00:01:00,35.9,25.6,30.12,NNE,32,0.0,0.0,66,0.00,,OVC250,0.00,VWS V14.01,2013-02-26 05:01:00,
2013-02-26 00:05:00,36.0,25.8,30.12,NNE,32,0.0,0.0,66,0.00,,,0.00,VWS V14.01,2013-02-26 05:05:00,
2013-02-26 00:06:00,36.0,25.8,30.12,NNE,32,0.0,0.0,66,0.00,,OVC250,0.00,VWS V14.01,2013-02-26 05:06:00,
2013-02-26 00:10:00,36.0,25.4,30.12,NNE,32,0.0,0.0,65,0.00,,,0.00,VWS V14.01,2013-02-26 05:10:00,
2013-02-26 00:11:00,36.0,25.4,30.12,NNE,32,0.0,0.0,65,0.00,,OVC250,0.00,VWS V14.01,2013-02-26 05:11:00,
2013-02-26 00:15:00,36.0,25.4,30.12,NE,39,0.0,0.0,65,0.00,,,0.00,VWS V14.01,2013-02-26 05:15:00,
2013-02-26 00:16:00,36.2,25.6,30.12,NE,39,0.0,0.0,65,0.00,,OVC250,0.00,VWS V14.01,2013-02-26 05:16:00,
2013-02-26 00:20:00,36.2,25.6,30.12,NE,43,0.0,0.0,65,0.00,,,0.00,VWS V14.01,2013-02-26 05:20:00,
2013-02-26 00:21:00,36.4,25.8,30.12,NE,43,0.0,0.0,65,0.00,,OVC250,0.00,VWS V14.01,2013-02-26 05:21:00,
2013-02-26 00:25:00,36.6,25.9,30.12,NE,44,0.0,0.0,65,0.00,,,0.00,VWS V14.01,2013-02-26 05:25:00,
2013-02-26 00:26:00,36.6,25.9,30.12,NE,44,0.0,0.0,65,0.00,,OVC250,0.00,VWS V14.01,2013-02-26 05:26:00,
2013-02-26 00:30:00,36.8,25.7,30.12,North,9,0.0,0.0,64,0.00,,,0.00,VWS V14.01,2013-02-26 05:30:00,
2013-02-26 00:31:00,36.8,25.7,30.12,North,9,0.0,0.0,64,0.00,,OVC250,0.00,VWS V14.01,2013-02-26 05:31:00,
2013-02-26 00:35:00,36.8,25.7,30.12,East,79,0.0,0.0,64,0.00,,,0.00,VWS V14.01,2013-02-26 05:35:00,
2013-02-26 00:36:00,36.9,25.9,30.12,ENE,61,0.0,0.0,64,0.00,,OVC250,0.00,VWS V14.01,2013-02-26 05:36:00,
2013-02-26 00:40:00,36.9,25.9,30.12,ENE,57,0.0,7.0,64,0.00,,,0.00,VWS V14.01,2013-02-26 05:40:00,
2013-02-26 00:41:00,36.9,25.9,30.12,NE,52,0.0,0.0,64,0.00,,OVC250,0.00,VWS V14.01,2013-02-26 05:41:00,
2013-02-26 00:45:00,36.9,25.9,30.12,NNE,28,0.0,0.0,64,0.00,,,0.00,VWS V14.01,2013-02-26 05:45:00,
2013-02-26 00:46:00,36.9,25.9,30.12,NNE,29,0.0,0.0,64,0.00,,OVC250,0.00,VWS V14.01,2013-02-26 05:46:00,
2013-02-26 00:50:00,36.9,25.9,30.12,NE,44,0.0,0.0,64,0.00,,,0.00,VWS V14.01,2013-02-26 05:50:00,
2013-02-26 00:52:00,36.9,25.9,30.12,NE,43,0.0,0.0,64,0.00,,OVC250,0.00,VWS V14.01,2013-02-26 05:52:00,
2013-02-26 00:57:00,36.9,24.8,30.12,NNE,29,0.0,0.0,61,0.00,,OVC250,0.00,VWS V14.01,2013-02-26 05:57:00,
2013-02-26 01:02:00,36.9,24.8,30.12,NE,54,0.0,0.0,61,0.00,,OVC110,0.00,VWS V14.01,2013-02-26 06:02:00,
2013-02-26 01:05:00,36.9,24.8,30.12,East,84,0.0,0.0,61,0.00,,,0.00,VWS V14.01,2013-02-26 06:05:00,
2013-02-26 01:07:00,36.9,24.8,30.12,NE,52,0.0,0.0,61,0.00,,OVC110,0.00,VWS V14.01,2013-02-26 06:07:00,
2013-02-26 01:10:00,36.9,25.9,30.12,NE,40,0.0,0.0,64,0.00,,,0.00,VWS V14.01,2013-02-26 06:10:00,
2013-02-26 01:12:00,36.9,25.9,30.12,NE,38,0.0,0.0,64,0.00,,OVC110,0.00,VWS V14.01,2013-02-26 06:12:00,
2013-02-26 01:15:00,36.9,24.8,30.12,NE,38,0.0,0.0,61,0.00,,,0.00,VWS V14.01,2013-02-26 06:15:00,
2013-02-26 01:17:00,36.9,24.8,30.12,NNE,33,0.0,0.0,61,0.00,,OVC110,0.00,VWS V14.01,2013-02-26 06:17:00,
2013-02-26 01:20:00,36.9,24.8,30.12,ESE,103,0.0,0.0,61,0.00,,,0.00,VWS V14.01,2013-02-26 06:20:00,
2013-02-26 01:22:00,36.9,24.8,30.12,NE,56,0.0,0.0,61,0.00,,OVC110,0.00,VWS V14.01,2013-02-26 06:22:00,
2013-02-26 01:25:00,36.9,24.8,30.12,NNE,33,0.0,0.0,61,0.00,,,0.00,VWS V14.01,2013-02-26 06:25:00,
2013-02-26 01:27:00,36.9,24.8,30.12,East,89,0.0,0.0,61,0.00,,OVC110,0.00,VWS V14.01,2013-02-26 06:27:00,
2013-02-26 01:30:00,36.9,24.8,30.12,ENE,76,0.0,0.0,61,0.00,,,0.00,VWS V14.01,2013-02-26 06:30:00,
2013-02-26 01:32:00,36.9,24.8,30.12,East,80,0.0,0.0,61,0.00,,OVC110,0.00,VWS V14.01,2013-02-26 06:32:00,
2013-02-26 01:35:00,36.9,24.8,30.12,NNE,30,0.0,0.0,61,0.00,,,0.00,VWS V14.01,2013-02-26 06:35:00,
2013-02-26 01:38:00,37.1,24.9,30.12,ENE,75,0.0,0.0,61,0.00,,OVC110,0.00,VWS V14.01,2013-02-26 06:38:00,
2013-02-26 01:40:00,37.1,24.9,30.12,ENE,72,0.0,0.0,61,0.00,,,0.00,VWS V14.01,2013-02-26 06:40:00,
2013-02-26 01:43:00,37.1,24.9,30.09,NE,36,0.0,0.0,61,0.00,,OVC110,0.00,VWS V14.01,2013-02-26 06:43:00,
2013-02-26 01:45:00,37.1,24.9,30.09,ENE,60,0.0,0.0,61,0.00,,,0.00,VWS V14.01,2013-02-26 06:45:00,
2013-02-26 01:48:00,37.1,24.9,30.09,NNE,27,0.0,0.0,61,0.00,,OVC110,0.00,VWS V14.01,2013-02-26 06:48:00,
2013-02-26 01:50:00,37.1,24.9,30.09,North,8,0.0,0.0,61,0.00,,,0.00,VWS V14.01,2013-02-26 06:50:00,
2013-02-26 01:53:00,36.9,24.8,30.09,North,357,0.0,0.0,61,0.00,,OVC110,0.00,VWS V14.01,2013-02-26 06:53:00,
2013-02-26 01:55:00,36.9,24.8,30.09,North,10,0.0,0.0,61,0.00,,,0.00,VWS V14.01,2013-02-26 06:55:00,
2013-02-26 01:58:00,36.9,24.8,30.09,NE,38,0.0,7.0,61,0.00,,OVC110,0.00,VWS V14.01,2013-02-26 06:58:00,
2013-02-26 02:00:00,36.9,24.8,30.09,NE,38,0.0,7.0,61,0.00,,,0.00,VWS V14.01,2013-02-26 07:00:00,
2013-02-26 02:03:00,37.1,24.9,30.09,ENE,59,0.0,0.0,61,0.00,,OVC075,0.00,VWS V14.01,2013-02-26 07:03:00,
2013-02-26 02:05:00,37.1,24.9,30.09,North,353,0.0,0.0,61,0.00,,,0.00,VWS V14.01,2013-02-26 07:05:00,
2013-02-26 02:08:00,37.1,24.9,30.09,NNE,21,0.0,0.0,61,0.00,,OVC075,0.00,VWS V14.01,2013-02-26 07:08:00,
2013-02-26 02:10:00,37.1,24.9,30.09,ENE,57,0.0,0.0,61,0.00,,,0.00,VWS V14.01,2013-02-26 07:10:00,
2013-02-26 02:13:00,36.9,24.8,30.09,ENE,69,0.0,7.0,61,0.00,,OVC075,0.00,VWS V14.01,2013-02-26 07:13:00,
2013-02-26 02:15:00,36.9,24.8,30.09,ENE,69,0.0,7.0,61,0.00,,,0.00,VWS V14.01,2013-02-26 07:15:00,
2013-02-26 02:18:00,36.9,24.8,30.09,ENE,57,0.0,0.0,61,0.00,,OVC075,0.00,VWS V14.01,2013-02-26 07:18:00,
2013-02-26 02:20:00,36.9,24.8,30.09,ENE,57,0.0,0.0,61,0.00,,,0.00,VWS V14.01,2013-02-26 07:20:00,
2013-02-26 02:24:00,36.9,24.8,30.09,ENE,76,0.0,0.0,61,0.00,,OVC075,0.00,VWS V14.01,2013-02-26 07:24:00,
2013-02-26 02:25:00,36.9,24.8,30.09,East,83,0.0,0.0,61,0.00,,,0.00,VWS V14.01,2013-02-26 07:25:00,
2013-02-26 02:29:00,36.9,24.8,30.09,NNE,20,0.0,0.0,61,0.00,,OVC075,0.00,VWS V14.01,2013-02-26 07:29:00,
2013-02-26 02:30:00,36.9,24.8,30.09,NNE,20,0.0,0.0,61,0.00,,,0.00,VWS V14.01,2013-02-26 07:30:00,
2013-02-26 02:34:00,36.9,24.8,30.06,North,6,8.1,11.3,61,0.00,,OVC075,0.00,VWS V14.01,2013-02-26 07:34:00,
2013-02-26 02:35:00,36.9,24.8,30.06,North,6,8.1,11.3,61,0.00,,,0.00,VWS V14.01,2013-02-26 07:35:00,
2013-02-26 02:39:00,36.9,24.8,30.06,NNE,24,0.0,8.5,61,0.00,,OVC075,0.00,VWS V14.01,2013-02-26 07:39:00,
2013-02-26 02:40:00,36.9,24.8,30.06,NNE,33,0.0,8.5,61,0.00,,,0.00,VWS V14.01,2013-02-26 07:40:00,
2013-02-26 02:44:00,36.9,24.8,30.06,NE,36,0.0,0.0,61,0.00,,OVC075,0.00,VWS V14.01,2013-02-26 07:44:00,
2013-02-26 02:45:00,36.9,24.8,30.06,NNW,348,0.0,0.0,61,0.00,,,0.00,VWS V14.01,2013-02-26 07:45:00,
2013-02-26 02:49:00,36.9,24.8,30.06,ENE,62,0.0,0.0,61,0.00,,OVC075,0.00,VWS V14.01,2013-02-26 07:49:00,
2013-02-26 02:50:00,36.9,24.8,30.06,ENE,62,0.0,0.0,61,0.00,,,0.00,VWS V14.01,2013-02-26 07:50:00,
2013-02-26 02:54:00,36.9,24.8,30.06,NNE,25,0.0,0.0,61,0.00,,OVC075,0.00,VWS V14.01,2013-02-26 07:54:00,
2013-02-26 02:55:00,36.9,24.8,30.06,NNE,25,0.0,0.0,61,0.00,,,0.00,VWS V14.01,2013-02-26 07:55:00,
2013-02-26 02:59:00,36.9,24.8,30.06,East,95,6.7,7.0,61,0.00,,OVC075,0.00,VWS V14.01,2013-02-26 07:59:00,
2013-02-26 03:00:00,36.9,24.8,30.06,East,95,6.7,7.0,61,0.00,,,0.00,VWS V14.01,2013-02-26 08:00:00,
2013-02-26 03:04:00,36.9,24.8,30.06,NNE,16,6.7,7.0,61,0.00,,OVC065,0.00,VWS V14.01,2013-02-26 08:04:00,
2013-02-26 03:05:00,36.9,24.8,30.06,NNE,16,6.7,7.0,61,0.00,,,0.00,VWS V14.01,2013-02-26 08:05:00,
2013-02-26 03:10:00,36.9,24.8,30.06,ENE,74,0.0,7.0,61,0.00,,OVC065,0.00,VWS V14.01,2013-02-26 08:10:00,
2013-02-26 03:15:00,36.9,24.8,30.06,East,83,0.0,0.0,61,0.00,,OVC065,0.00,VWS V14.01,2013-02-26 08:15:00,
2013-02-26 03:20:00,36.9,24.8,30.06,East,81,0.0,0.0,61,0.00,,OVC065,0.00,VWS V14.01,2013-02-26 08:20:00,
2013-02-26 03:25:00,36.9,24.8,30.06,NNE,27,0.0,0.0,61,0.00,,OVC065,0.00,VWS V14.01,2013-02-26 08:25:00,
2013-02-26 03:30:00,36.9,25.9,30.06,ENE,63,0.0,0.0,64,0.00,,OVC065,0.00,VWS V14.01,2013-02-26 08:30:00,
2013-02-26 03:35:00,36.9,25.9,30.06,ENE,63,0.0,0.0,64,0.00,,OVC065,0.00,VWS V14.01,2013-02-26 08:35:00,
2013-02-26 03:40:00,36.9,25.9,30.06,NE,41,0.0,0.0,64,0.00,,OVC065,0.00,VWS V14.01,2013-02-26 08:40:00,
2013-02-26 03:45:00,36.9,25.9,30.03,NNE,29,0.0,0.0,64,0.00,,OVC065,0.00,VWS V14.01,2013-02-26 08:45:00,
2013-02-26 03:50:00,36.8,25.7,30.03,NE,40,0.0,0.0,64,0.00,,OVC065,0.00,VWS V14.01,2013-02-26 08:50:00,
2013-02-26 03:55:00,36.8,25.7,30.03,NE,34,0.0,0.0,64,0.00,,,0.00,VWS V14.01,2013-02-26 08:55:00,
2013-02-26 03:56:00,36.6,25.6,30.03,NE,34,0.0,0.0,64,0.00,,OVC065,0.00,VWS V14.01,2013-02-26 08:56:00,
2013-02-26 04:00:00,36.6,25.6,30.03,NNE,32,0.0,0.0,64,0.00,,,0.00,VWS V14.01,2013-02-26 09:00:00,
2013-02-26 04:01:00,36.6,25.6,30.03,NNE,32,0.0,0.0,64,0.00,,OVC070,0.00,VWS V14.01,2013-02-26 09:01:00,
2013-02-26 04:05:00,36.6,25.6,30.03,ENE,71,0.0,0.0,64,0.00,,,0.00,VWS V14.01,2013-02-26 09:05:00,
2013-02-26 04:06:00,36.6,25.6,30.03,ENE,71,0.0,0.0,64,0.00,,OVC070,0.00,VWS V14.01,2013-02-26 09:06:00,
2013-02-26 04:10:00,36.4,25.4,30.03,ENE,64,0.0,0.0,64,0.00,,,0.00,VWS V14.01,2013-02-26 09:10:00,
2013-02-26 04:11:00,36.4,25.4,30.03,ENE,69,0.0,0.0,64,0.00,,OVC070,0.00,VWS V14.01,2013-02-26 09:11:00,
2013-02-26 04:15:00,36.4,25.4,30.03,ENE,59,0.0,0.0,64,0.00,,,0.00,VWS V14.01,2013-02-26 09:15:00,
2013-02-26 04:16:00,36.4,25.4,30.03,North,11,0.0,0.0,64,0.00,,OVC070,0.00,VWS V14.01,2013-02-26 09:16:00,
2013-02-26 04:20:00,36.4,25.4,30.03,NE,49,0.0,0.0,64,0.00,,,0.00,VWS V14.01,2013-02-26 09:20:00,
2013-02-26 04:21:00,36.4,25.4,30.03,NNE,31,0.0,0.0,64,0.00,,OVC070,0.00,VWS V14.01,2013-02-26 09:21:00,
2013-02-26 04:25:00,36.4,25.4,30.03,ENE,76,0.0,0.0,64,0.00,,,0.00,VWS V14.01,2013-02-26 09:25:00,
2013-02-26 04:26:00,36.4,25.4,30.03,ENE,71,0.0,0.0,64,0.00,,OVC070,0.00,VWS V14.01,2013-02-26 09:26:00,
2013-02-26 04:30:00,36.4,25.4,30.03,NE,43,0.0,0.0,64,0.00,,,0.00,VWS V14.01,2013-02-26 09:30:00,
2013-02-26 04:31:00,36.4,25.8,30.03,NE,43,0.0,0.0,65,0.00,,OVC070,0.00,VWS V14.01,2013-02-26 09:31:00,
2013-02-26 04:35:00,36.6,25.9,30.03,NE,54,0.0,0.0,65,0.00,,,0.00,VWS V14.01,2013-02-26 09:35:00,
2013-02-26 04:36:00,36.6,25.6,30.03,East,92,0.0,0.0,64,0.00,,OVC070,0.00,VWS V14.01,2013-02-26 09:36:00,
2013-02-26 04:40:00,36.8,26.1,30.00,NE,49,0.0,0.0,65,0.00,,,0.00,VWS V14.01,2013-02-26 09:40:00,
2013-02-26 04:42:00,36.6,25.6,30.00,ENE,68,0.0,0.0,64,0.00,,OVC070,0.00,VWS V14.01,2013-02-26 09:42:00,
2013-02-26 04:45:00,36.8,26.1,30.03,North,10,0.0,0.0,65,0.00,,,0.00,VWS V14.01,2013-02-26 09:45:00,
2013-02-26 04:47:00,36.8,26.1,30.03,NNE,12,0.0,0.0,65,0.00,,OVC070,0.00,VWS V14.01,2013-02-26 09:47:00,
2013-02-26 04:50:00,36.8,25.7,30.03,NE,40,0.0,0.0,64,0.00,,,0.00,VWS V14.01,2013-02-26 09:50:00,
2013-02-26 04:52:00,36.8,26.1,30.03,NNE,28,0.0,0.0,65,0.00,,OVC070,0.00,VWS V14.01,2013-02-26 09:52:00,
2013-02-26 04:55:00,36.8,25.7,30.03,NNE,28,0.0,0.0,64,0.00,,,0.00,VWS V14.01,2013-02-26 09:55:00,
2013-02-26 04:57:00,36.8,26.1,30.03,East,80,0.0,0.0,65,0.00,,OVC070,0.00,VWS V14.01,2013-02-26 09:57:00,
2013-02-26 05:00:00,36.8,26.1,30.03,NE,42,0.0,0.0,65,0.00,,,0.00,VWS V14.01,2013-02-26 10:00:00,
2013-02-26 05:02:00,36.8,26.1,30.03,ENE,57,0.0,0.0,65,0.00,,OVC050,0.00,VWS V14.01,2013-02-26 10:02:00,
2013-02-26 05:05:00,36.8,26.1,30.03,ENE,57,0.0,0.0,65,0.00,,,0.00,VWS V14.01,2013-02-26 10:05:00,
2013-02-26 05:07:00,36.8,26.1,30.03,ENE,62,0.0,0.0,65,0.00,,OVC050,0.00,VWS V14.01,2013-02-26 10:07:00,
2013-02-26 05:10:00,36.8,26.1,30.03,North,357,0.0,0.0,65,0.00,,,0.00,VWS V14.01,2013-02-26 10:10:00,
2013-02-26 05:12:00,36.8,26.1,30.03,ENE,64,0.0,0.0,65,0.00,,OVC050,0.00,VWS V14.01,2013-02-26 10:12:00,
2013-02-26 05:17:00,36.8,26.1,30.00,NNW,342,0.0,0.0,65,0.00,,OVC050,0.00,VWS V14.01,2013-02-26 10:17:00,
2013-02-26 05:20:00,36.8,26.5,30.00,North,7,0.0,0.0,66,0.00,,,0.00,VWS V14.01,2013-02-26 10:20:00,
2013-02-26 05:22:00,36.8,26.5,30.00,NNW,345,0.0,9.9,66,0.00,,OVC050,0.00,VWS V14.01,2013-02-26 10:22:00,
2013-02-26 05:25:00,36.8,26.5,30.00,NE,37,0.0,9.9,66,0.00,,,0.00,VWS V14.01,2013-02-26 10:25:00,
2013-02-26 05:27:00,36.8,26.5,30.00,NNE,32,0.0,8.5,66,0.00,,OVC050,0.00,VWS V14.01,2013-02-26 10:27:00,
2013-02-26 05:30:00,36.9,26.7,30.00,ENE,57,0.0,8.5,66,0.00,,,0.00,VWS V14.01,2013-02-26 10:30:00,
2013-02-26 05:33:00,36.9,26.7,30.00,ENE,58,0.0,0.0,66,0.00,,OVC050,0.00,VWS V14.01,2013-02-26 10:33:00,
2013-02-26 05:35:00,36.9,27.0,30.00,North,3,0.0,0.0,67,0.00,,,0.00,VWS V14.01,2013-02-26 10:35:00,
2013-02-26 05:38:00,36.9,27.0,30.00,NNE,24,0.0,0.0,67,0.00,,OVC050,0.00,VWS V14.01,2013-02-26 10:38:00,
2013-02-26 05:40:00,36.9,27.0,30.00,NNE,24,0.0,0.0,67,0.00,,,0.00,VWS V14.01,2013-02-26 10:40:00,
2013-02-26 05:43:00,36.9,27.0,30.00,NNE,24,0.0,0.0,67,0.00,,OVC050,0.00,VWS V14.01,2013-02-26 10:43:00,
2013-02-26 05:45:00,37.1,27.2,30.00,North,6,0.0,0.0,67,0.00,,,0.00,VWS V14.01,2013-02-26 10:45:00,
2013-02-26 05:48:00,37.1,27.2,30.00,NNE,29,0.0,0.0,67,0.00,,OVC050,0.00,VWS V14.01,2013-02-26 10:48:00,
2013-02-26 05:50:00,37.1,27.2,30.00,NNE,24,0.0,0.0,67,0.00,,,0.00,VWS V14.01,2013-02-26 10:50:00,
2013-02-26 05:53:00,36.9,27.0,30.00,NE,49,0.0,0.0,67,0.00,,OVC050,0.00,VWS V14.01,2013-02-26 10:53:00,
2013-02-26 05:55:00,36.9,27.0,30.00,NE,48,0.0,0.0,67,0.00,,,0.00,VWS V14.01,2013-02-26 10:55:00,
2013-02-26 05:58:00,36.9,27.0,30.00,North,6,0.0,0.0,67,0.00,,OVC050,0.00,VWS V14.01,2013-02-26 10:58:00,
2013-02-26 06:00:00,36.9,27.4,30.00,ENE,63,0.0,0.0,68,0.00,,,0.00,VWS V14.01,2013-02-26 11:00:00,
2013-02-26 06:03:00,36.9,27.4,30.00,ENE,61,0.0,0.0,68,0.00,,OVC050,0.00,VWS V14.01,2013-02-26 11:03:00,
2013-02-26 06:05:00,36.9,27.4,30.00,North,357,0.0,0.0,68,0.00,,,0.00,VWS V14.01,2013-02-26 11:05:00,
2013-02-26 06:08:00,36.9,27.4,30.00,NNE,18,0.0,12.7,68,0.00,,OVC050,0.00,VWS V14.01,2013-02-26 11:08:00,
2013-02-26 06:10:00,36.9,27.7,30.00,NNE,27,0.0,12.7,69,0.00,,,0.00,VWS V14.01,2013-02-26 11:10:00,
2013-02-26 06:14:00,36.9,27.7,30.00,North,5,0.0,8.5,69,0.00,,OVC050,0.00,VWS V14.01,2013-02-26 11:14:00,
2013-02-26 06:15:00,36.9,27.7,30.00,North,11,9.4,9.9,69,0.00,,,0.00,VWS V14.01,2013-02-26 11:15:00,
2013-02-26 06:19:00,36.9,27.7,30.00,North,9,0.0,9.9,69,0.00,,OVC050,0.00,VWS V14.01,2013-02-26 11:19:00,
2013-02-26 06:20:00,36.9,27.7,30.00,NNE,22,0.0,9.9,69,0.00,,,0.00,VWS V14.01,2013-02-26 11:20:00,
2013-02-26 06:24:00,36.9,28.4,30.00,NNE,24,0.0,0.0,71,0.00,,OVC050,0.00,VWS V14.01,2013-02-26 11:24:00,
2013-02-26 06:25:00,36.9,28.4,30.00,NNE,24,0.0,0.0,71,0.00,,,0.00,VWS V14.01,2013-02-26 11:25:00,
2013-02-26 06:29:00,36.9,28.8,30.00,NNE,15,0.0,0.0,72,0.00,,OVC050,0.00,VWS V14.01,2013-02-26 11:29:00,
2013-02-26 06:30:00,36.9,28.8,30.00,NNE,15,0.0,0.0,72,0.00,,,0.00,VWS V14.01,2013-02-26 11:30:00,
2013-02-26 06:34:00,37.1,29.6,30.00,NE,53,0.0,0.0,74,0.00,,OVC050,0.00,VWS V14.01,2013-02-26 11:34:00,
2013-02-26 06:35:00,37.1,29.6,30.00,NE,52,0.0,0.0,74,0.00,,,0.00,VWS V14.01,2013-02-26 11:35:00,
2013-02-26 06:39:00,37.1,29.9,30.00,ENE,76,0.0,0.0,75,0.00,,OVC050,0.00,VWS V14.01,2013-02-26 11:39:00,
2013-02-26 06:40:00,37.1,29.9,30.00,ENE,68,0.0,0.0,75,0.00,,,0.00,VWS V14.01,2013-02-26 11:40:00,
2013-02-26 06:44:00,37.1,30.3,30.00,NE,45,0.0,0.0,76,0.00,,OVC050,0.00,VWS V14.01,2013-02-26 11:44:00,
2013-02-26 06:45:00,36.9,30.1,30.00,NE,45,0.0,0.0,76,0.00,,,0.00,VWS V14.01,2013-02-26 11:45:00,
2013-02-26 06:49:00,36.9,30.4,30.00,NE,44,0.0,0.0,77,0.00,,OVC050,0.00,VWS V14.01,2013-02-26 11:49:00,
2013-02-26 06:50:00,36.9,30.4,30.00,NE,44,0.0,0.0,77,0.00,,,0.00,VWS V14.01,2013-02-26 11:50:00,
2013-02-26 06:54:00,36.8,30.6,30.00,NE,40,0.0,0.0,78,0.00,,OVC050,0.00,VWS V14.01,2013-02-26 11:54:00,
2013-02-26 06:55:00,36.8,30.6,30.00,NE,40,0.0,0.0,78,0.00,,,0.00,VWS V14.01,2013-02-26 11:55:00,
2013-02-26 06:59:00,36.6,31.0,30.00,NNE,15,0.0,0.0,80,0.00,,OVC050,0.00,VWS V14.01,2013-02-26 11:59:00,
2013-02-26 07:00:00,36.6,31.0,30.00,NNE,15,0.0,0.0,80,0.00,,,0.00,VWS V14.01,2013-02-26 12:00:00,
2013-02-26 07:04:00,36.4,30.8,30.00,NNE,16,0.0,0.0,80,0.00,,-RA,0.00,VWS V14.01,2013-02-26 12:04:00,
2013-02-26 07:05:00,36.4,30.8,30.00,NNE,16,0.0,0.0,80,0.00,,,0.00,VWS V14.01,2013-02-26 12:05:00,
2013-02-26 07:10:00,36.2,31.6,30.00,NNE,19,0.0,0.0,83,0.00,,-RA,0.00,VWS V14.01,2013-02-26 12:10:00,
2013-02-26 07:15:00,36.0,32.0,30.00,NNE,19,0.0,0.0,85,0.00,,-RA,0.00,VWS V14.01,2013-02-26 12:15:00,
2013-02-26 07:20:00,36.0,32.5,30.00,NNE,24,0.0,0.0,87,0.00,,-RA,0.00,VWS V14.01,2013-02-26 12:20:00,
2013-02-26 07:25:00,36.0,32.8,29.97,NNE,24,0.0,0.0,88,0.00,,-RA,0.00,VWS V14.01,2013-02-26 12:25:00,
2013-02-26 07:30:00,36.0,33.1,29.97,NNE,24,0.0,0.0,89,0.04,,-RA,0.04,VWS V14.01,2013-02-26 12:30:00,
2013-02-26 07:35:00,36.0,33.4,29.97,NNE,28,0.0,0.0,90,0.04,,-RA,0.04,VWS V14.01,2013-02-26 12:35:00,
2013-02-26 07:40:00,36.0,33.7,29.97,NNE,22,0.0,0.0,91,0.04,,-RA,0.04,VWS V14.01,2013-02-26 12:40:00,
2013-02-26 07:45:00,35.9,33.8,29.97,NE,41,0.0,0.0,92,0.04,,-RA,0.04,VWS V14.01,2013-02-26 12:45:00,
2013-02-26 07:50:00,35.9,34.3,29.97,ENE,58,0.0,0.0,94,0.08,,-RA,0.08,VWS V14.01,2013-02-26 12:50:00,
2013-02-26 07:55:00,35.9,34.6,29.97,East,79,0.0,0.0,95,0.08,,,0.08,VWS V14.01,2013-02-26 12:55:00,
2013-02-26 07:56:00,35.9,34.6,29.97,East,79,0.0,0.0,95,0.08,,-RA,0.08,VWS V14.01,2013-02-26 12:56:00,
2013-02-26 08:00:00,35.9,34.6,29.97,ENE,65,0.0,0.0,95,0.08,,,0.08,VWS V14.01,2013-02-26 13:00:00,
2013-02-26 08:01:00,35.9,34.6,29.97,ENE,59,0.0,0.0,95,0.08,,-RA,0.08,VWS V14.01,2013-02-26 13:01:00,
2013-02-26 08:05:00,35.9,35.1,29.97,NNE,26,0.0,0.0,97,0.08,,,0.08,VWS V14.01,2013-02-26 13:05:00,
2013-02-26 08:06:00,35.9,35.1,29.97,NNE,17,6.7,7.0,97,0.08,,-RA,0.08,VWS V14.01,2013-02-26 13:06:00,
2013-02-26 08:10:00,36.0,35.5,29.97,NNE,17,0.0,7.0,98,0.08,,,0.08,VWS V14.01,2013-02-26 13:10:00,
2013-02-26 08:11:00,36.0,35.5,29.97,NNE,17,0.0,0.0,98,0.08,,-RA,0.08,VWS V14.01,2013-02-26 13:11:00,
2013-02-26 08:15:00,36.0,35.8,29.97,ENE,65,0.0,0.0,99,0.08,,,0.08,VWS V14.01,2013-02-26 13:15:00,
2013-02-26 08:16:00,36.0,35.8,29.97,ENE,65,0.0,0.0,99,0.08,,-RA,0.08,VWS V14.01,2013-02-26 13:16:00,
2013-02-26 08:20:00,36.2,36.2,29.97,East,88,0.0,0.0,100,0.08,,,0.08,VWS V14.01,2013-02-26 13:20:00,
2013-02-26 08:21:00,36.2,36.2,29.97,NNE,27,0.0,0.0,100,0.08,,-RA,0.08,VWS V14.01,2013-02-26 13:21:00,
2013-02-26 08:25:00,36.2,36.2,29.97,NE,51,0.0,0.0,100,0.08,,,0.08,VWS V14.01,2013-02-26 13:25:00,
2013-02-26 08:26:00,36.2,36.2,29.97,ENE,73,0.0,0.0,100,0.08,,-RA,0.08,VWS V14.01,2013-02-26 13:26:00,
2013-02-26 08:30:00,36.2,36.2,29.97,NNE,18,0.0,0.0,100,0.08,,,0.08,VWS V14.01,2013-02-26 13:30:00,
2013-02-26 08:31:00,36.2,36.2,29.97,ENE,76,0.0,0.0,100,0.04,,-RA,0.08,VWS V14.01,2013-02-26 13:31:00,
2013-02-26 08:35:00,36.2,36.2,29.97,NE,49,0.0,0.0,100,0.04,,,0.08,VWS V14.01,2013-02-26 13:35:00,
2013-02-26 08:36:00,36.2,36.2,29.97,NE,49,0.0,0.0,100,0.04,,-RA,0.08,VWS V14.01,2013-02-26 13:36:00,
2013-02-26 08:40:00,36.2,36.2,29.94,NE,35,0.0,0.0,100,0.04,,,0.08,VWS V14.01,2013-02-26 13:40:00,
2013-02-26 08:42:00,36.2,36.2,29.94,NNE,23,0.0,0.0,100,0.04,,-RA,0.08,VWS V14.01,2013-02-26 13:42:00,
2013-02-26 08:45:00,36.4,36.4,29.94,NNE,25,0.0,0.0,100,0.08,,,0.12,VWS V14.01,2013-02-26 13:45:00,
2013-02-26 08:47:00,36.4,36.4,29.94,NNE,25,0.0,0.0,100,0.08,,-RA,0.12,VWS V14.01,2013-02-26 13:47:00,
2013-02-26 08:50:00,36.4,36.4,29.94,NNE,25,0.0,0.0,100,0.08,,,0.12,VWS V14.01,2013-02-26 13:50:00,
2013-02-26 08:52:00,36.4,36.4,29.94,ENE,76,0.0,0.0,100,0.04,,-RA,0.12,VWS V14.01,2013-02-26 13:52:00,
2013-02-26 08:55:00,36.6,36.6,29.94,NNE,23,0.0,0.0,100,0.04,,,0.12,VWS V14.01,2013-02-26 13:55:00,
2013-02-26 08:57:00,36.6,36.6,29.94,ENE,71,0.0,0.0,100,0.04,,-RA,0.12,VWS V14.01,2013-02-26 13:57:00,
2013-02-26 09:00:00,36.6,36.6,29.94,East,84,0.0,0.0,100,0.04,,,0.12,VWS V14.01,2013-02-26 14:00:00,
2013-02-26 09:02:00,36.8,36.8,29.94,NE,54,0.0,0.0,100,0.04,,-RA,0.12,VWS V14.01,2013-02-26 14:02:00,
2013-02-26 09:05:00,36.8,36.8,29.94,ENE,67,0.0,0.0,100,0.04,,,0.12,VWS V14.01,2013-02-26 14:05:00,
2013-02-26 09:07:00,36.9,36.9,29.94,ENE,67,0.0,0.0,100,0.04,,-RA,0.12,VWS V14.01,2013-02-26 14:07:00,
2013-02-26 09:10:00,36.9,36.9,29.94,NNE,27,0.0,0.0,100,0.04,,,0.12,VWS V14.01,2013-02-26 14:10:00,
2013-02-26 09:12:00,37.1,37.1,29.94,NNE,27,0.0,0.0,100,0.04,,-RA,0.12,VWS V14.01,2013-02-26 14:12:00,
2013-02-26 09:15:00,37.1,37.1,29.94,NNE,27,0.0,0.0,100,0.04,,,0.12,VWS V14.01,2013-02-26 14:15:00,
2013-02-26 09:17:00,37.1,37.1,29.94,NNE,27,0.0,0.0,100,0.04,,-RA,0.12,VWS V14.01,2013-02-26 14:17:00,
2013-02-26 09:20:00,37.3,37.3,29.94,NNE,28,0.0,0.0,100,0.04,,,0.12,VWS V14.01,2013-02-26 14:20:00,
2013-02-26 09:22:00,37.3,37.3,29.94,NNE,24,0.0,0.0,100,0.08,,-RA,0.16,VWS V14.01,2013-02-26 14:22:00,
2013-02-26 09:25:00,37.5,37.5,29.94,NE,39,0.0,0.0,100,0.08,,,0.16,VWS V14.01,2013-02-26 14:25:00,
2013-02-26 09:27:00,37.5,37.5,29.94,NNE,22,0.0,9.9,100,0.08,,-RA,0.16,VWS V14.01,2013-02-26 14:27:00,
2013-02-26 09:30:00,37.7,37.7,29.94,NNE,22,0.0,9.9,100,0.08,,,0.16,VWS V14.01,2013-02-26 14:30:00,
2013-02-26 09:32:00,37.7,37.7,29.94,ENE,60,0.0,0.0,100,0.08,,-RA,0.16,VWS V14.01,2013-02-26 14:32:00,
2013-02-26 09:35:00,37.8,37.8,29.94,NNE,33,0.0,0.0,100,0.08,,,0.16,VWS V14.01,2013-02-26 14:35:00,
2013-02-26 09:37:00,37.8,37.8,29.94,NNE,32,0.0,0.0,100,0.08,,-RA,0.16,VWS V14.01,2013-02-26 14:37:00,
2013-02-26 09:40:00,38.0,38.0,29.94,NNE,22,0.0,8.5,100,0.08,,,0.16,VWS V14.01,2013-02-26 14:40:00,
2013-02-26 09:42:00,38.2,38.2,29.91,NE,45,0.0,7.0,100,0.08,,-RA,0.16,VWS V14.01,2013-02-26 14:42:00,
2013-02-26 09:45:00,38.2,38.2,29.91,NE,45,0.0,7.0,100,0.08,,,0.16,VWS V14.01,2013-02-26 14:45:00,
2013-02-26 09:47:00,38.2,38.2,29.91,NNE,27,6.7,7.0,100,0.04,,-RA,0.16,VWS V14.01,2013-02-26 14:47:00,
2013-02-26 09:50:00,38.4,38.4,29.91,NNE,27,0.0,7.0,100,0.04,,,0.16,VWS V14.01,2013-02-26 14:50:00,
2013-02-26 09:52:00,38.4,38.4,29.91,East,79,0.0,0.0,100,0.04,,-RA,0.16,VWS V14.01,2013-02-26 14:52:00,
2013-02-26 09:55:00,38.6,38.6,29.91,NNE,19,0.0,0.0,100,0.04,,,0.16,VWS V14.01,2013-02-26 14:55:00,
2013-02-26 09:57:00,38.6,38.6,29.91,ENE,62,0.0,0.0,100,0.04,,-RA,0.16,VWS V14.01,2013-02-26 14:57:00,
2013-02-26 10:00:00,38.7,38.7,29.91,NE,56,0.0,7.0,100,0.04,,,0.16,VWS V14.01,2013-02-26 15:00:00,
2013-02-26 10:02:00,38.7,38.7,29.91,NE,41,0.0,0.0,100,0.04,,-RA,0.16,VWS V14.01,2013-02-26 15:02:00,
2013-02-26 10:05:00,38.9,38.9,29.91,East,87,6.7,7.0,100,0.04,,,0.16,VWS V14.01,2013-02-26 15:05:00,
2013-02-26 10:07:00,38.9,38.9,29.91,East,87,0.0,7.0,100,0.04,,-RA,0.16,VWS V14.01,2013-02-26 15:07:00,
2013-02-26 10:10:00,39.1,39.1,29.91,NNE,21,0.0,7.0,100,0.04,,,0.16,VWS V14.01,2013-02-26 15:10:00,
2013-02-26 10:12:00,39.1,39.1,29.91,NNE,18,0.0,0.0,100,0.08,,-RA,0.20,VWS V14.01,2013-02-26 15:12:00,
2013-02-26 10:15:00,39.3,39.3,29.91,NE,34,0.0,7.0,100,0.08,,,0.20,VWS V14.01,2013-02-26 15:15:00,
2013-02-26 10:18:00,39.5,39.5,29.91,NNE,28,0.0,0.0,100,0.08,,-RA,0.20,VWS V14.01,2013-02-26 15:18:00,
2013-02-26 10:20:00,39.5,39.5,29.91,North,0,0.0,0.0,100,0.08,,,0.20,VWS V14.01,2013-02-26 15:20:00,
2013-02-26 10:23:00,39.6,39.6,29.91,NE,44,0.0,0.0,100,0.08,,-RA,0.20,VWS V14.01,2013-02-26 15:23:00,
2013-02-26 10:25:00,39.6,39.6,29.91,NNE,27,0.0,0.0,100,0.08,,,0.20,VWS V14.01,2013-02-26 15:25:00,
2013-02-26 10:28:00,39.6,39.6,29.88,NE,49,0.0,0.0,100,0.04,,-RA,0.20,VWS V14.01,2013-02-26 15:28:00,
2013-02-26 10:30:00,39.6,39.6,29.88,East,90,0.0,0.0,100,0.04,,,0.20,VWS V14.01,2013-02-26 15:30:00,
2013-02-26 10:33:00,39.8,39.8,29.88,NE,37,0.0,0.0,100,0.04,,-RA,0.20,VWS V14.01,2013-02-26 15:33:00,
2013-02-26 10:35:00,39.8,39.8,29.88,NE,47,0.0,0.0,100,0.04,,,0.20,VWS V14.01,2013-02-26 15:35:00,
2013-02-26 10:38:00,40.0,40.0,29.88,NE,41,0.0,0.0,100,0.04,,-RA,0.20,VWS V14.01,2013-02-26 15:38:00,
2013-02-26 10:40:00,40.0,40.0,29.85,NE,35,9.4,9.9,100,0.04,,,0.20,VWS V14.01,2013-02-26 15:40:00,
2013-02-26 10:43:00,40.0,40.0,29.85,NE,38,0.0,9.9,100,0.04,,-RA,0.20,VWS V14.01,2013-02-26 15:43:00,
2013-02-26 10:45:00,40.2,40.2,29.85,ENE,60,0.0,9.9,100,0.04,,,0.20,VWS V14.01,2013-02-26 15:45:00,
2013-02-26 10:48:00,40.4,40.4,29.85,ENE,60,0.0,0.0,100,0.12,,-RA,0.28,VWS V14.01,2013-02-26 15:48:00,
2013-02-26 10:50:00,40.4,40.4,29.85,North,9,0.0,0.0,100,0.12,,,0.28,VWS V14.01,2013-02-26 15:50:00,
2013-02-26 10:53:00,40.7,40.7,29.85,East,88,0.0,0.0,100,0.12,,-RA,0.28,VWS V14.01,2013-02-26 15:53:00,
2013-02-26 10:55:00,40.9,40.9,29.85,NNE,26,0.0,0.0,100,0.12,,,0.28,VWS V14.01,2013-02-26 15:55:00,
2013-02-26 10:58:00,41.1,41.1,29.85,NE,37,0.0,15.5,100,0.12,,-RA,0.28,VWS V14.01,2013-02-26 15:58:00,
2013-02-26 11:00:00,41.3,41.3,29.85,NE,46,0.0,15.5,100,0.12,,,0.28,VWS V14.01,2013-02-26 16:00:00,
2013-02-26 11:03:00,41.6,41.6,29.85,East,98,10.7,11.3,100,0.12,,RA,0.28,VWS V14.01,2013-02-26 16:03:00,
2013-02-26 11:05:00,41.8,41.8,29.85,NNE,25,0.0,11.3,100,0.12,,,0.28,VWS V14.01,2013-02-26 16:05:00,
2013-02-26 11:08:00,42.0,42.0,29.85,NE,35,0.0,0.0,100,0.12,,RA,0.28,VWS V14.01,2013-02-26 16:08:00,
2013-02-26 11:10:00,42.2,42.2,29.85,NE,34,0.0,8.5,100,0.12,,,0.28,VWS V14.01,2013-02-26 16:10:00,
2013-02-26 11:13:00,42.3,42.3,29.85,North,9,0.0,7.0,100,0.12,,RA,0.28,VWS V14.01,2013-02-26 16:13:00,
2013-02-26 11:15:00,42.3,42.3,29.85,ENE,64,0.0,7.0,100,0.12,,,0.28,VWS V14.01,2013-02-26 16:15:00,
2013-02-26 11:18:00,42.5,42.5,29.85,NNE,21,0.0,8.5,100,0.08,,RA,0.28,VWS V14.01,2013-02-26 16:18:00,
2013-02-26 11:20:00,42.5,42.5,29.85,North,349,0.0,8.5,100,0.08,,,0.28,VWS V14.01,2013-02-26 16:20:00,
2013-02-26 11:23:00,42.5,42.5,29.85,NNW,343,0.0,7.0,100,0.08,,RA,0.28,VWS V14.01,2013-02-26 16:23:00,
2013-02-26 11:25:00,42.5,42.5,29.85,NE,38,0.0,7.0,100,0.08,,,0.28,VWS V14.01,2013-02-26 16:25:00,
2013-02-26 11:28:00,42.9,42.9,29.83,South,187,6.7,9.9,100,0.08,,RA,0.28,VWS V14.01,2013-02-26 16:28:00,
2013-02-26 11:30:00,42.9,42.9,29.83,North,0,9.4,9.9,100,0.08,,,0.28,VWS V14.01,2013-02-26 16:30:00,
2013-02-26 11:33:00,43.2,43.2,29.83,NE,34,0.0,12.7,100,0.12,,RA,0.31,VWS V14.01,2013-02-26 16:33:00,
2013-02-26 11:35:00,43.2,43.2,29.83,NE,34,0.0,12.7,100,0.12,,,0.31,VWS V14.01,2013-02-26 16:35:00,
2013-02-26 11:38:00,43.4,43.4,29.83,North,2,0.0,8.5,100,0.12,,RA,0.31,VWS V14.01,2013-02-26 16:38:00,
2013-02-26 11:40:00,43.6,43.6,29.83,NE,55,0.0,8.5,100,0.12,,,0.31,VWS V14.01,2013-02-26 16:40:00,
2013-02-26 11:43:00,43.8,43.8,29.83,NNW,345,9.4,9.9,100,0.12,,RA,0.31,VWS V14.01,2013-02-26 16:43:00,
2013-02-26 11:45:00,43.8,43.8,29.83,NNW,337,8.1,9.9,100,0.12,,,0.31,VWS V14.01,2013-02-26 16:45:00,
2013-02-26 11:48:00,44.1,44.1,29.83,NE,46,0.0,8.5,100,0.12,,RA,0.31,VWS V14.01,2013-02-26 16:48:00,
2013-02-26 11:50:00,44.1,44.1,29.83,ENE,66,0.0,11.3,100,0.12,,,0.31,VWS V14.01,2013-02-26 16:50:00,
2013-02-26 11:53:00,44.3,44.3,29.83,ENE,78,6.7,11.3,100,0.04,,RA,0.31,VWS V14.01,2013-02-26 16:53:00,
2013-02-26 11:55:00,44.5,44.5,29.83,NE,40,0.0,11.3,100,0.04,,,0.31,VWS V14.01,2013-02-26 16:55:00,
2013-02-26 11:58:00,44.9,44.9,29.80,NW,305,0.0,9.9,100,0.04,,RA,0.31,VWS V14.01,2013-02-26 16:58:00,
2013-02-26 12:00:00,44.9,44.9,29.80,NNW,328,0.0,9.9,100,0.04,,,0.31,VWS V14.01,2013-02-26 17:00:00,
2013-02-26 12:03:00,45.0,45.0,29.80,ENE,62,0.0,11.3,100,0.04,,-RA,0.31,VWS V14.01,2013-02-26 17:03:00,
2013-02-26 12:05:00,45.0,45.0,29.80,NNW,332,0.0,11.3,100,0.04,,,0.31,VWS V14.01,2013-02-26 17:05:00,
2013-02-26 12:08:00,45.2,45.2,29.80,NNW,340,0.0,8.5,100,0.04,,-RA,0.31,VWS V14.01,2013-02-26 17:08:00,
2013-02-26 12:10:00,45.2,45.2,29.80,NE,34,6.7,8.5,100,0.04,,,0.31,VWS V14.01,2013-02-26 17:10:00,
2013-02-26 12:13:00,45.4,45.4,29.80,North,1,8.1,8.5,100,0.04,,-RA,0.31,VWS V14.01,2013-02-26 17:13:00,
2013-02-26 12:15:00,45.4,45.4,29.80,ENE,57,0.0,8.5,100,0.04,,,0.31,VWS V14.01,2013-02-26 17:15:00,
2013-02-26 12:18:00,45.4,45.4,29.80,West,263,8.1,8.5,100,0.04,,-RA,0.31,VWS V14.01,2013-02-26 17:18:00,
2013-02-26 12:20:00,45.6,45.6,29.80,NW,307,6.7,8.5,100,0.04,,,0.31,VWS V14.01,2013-02-26 17:20:00,
2013-02-26 12:23:00,45.8,45.8,29.80,North,10,0.0,7.0,100,0.08,,-RA,0.35,VWS V14.01,2013-02-26 17:23:00,
2013-02-26 12:25:00,45.8,45.8,29.80,West,279,8.1,8.5,100,0.08,,,0.35,VWS V14.01,2013-02-26 17:25:00,
2013-02-26 12:29:00,45.9,45.9,29.77,NE,41,8.1,11.3,100,0.08,,-RA,0.35,VWS V14.01,2013-02-26 17:29:00,
2013-02-26 12:30:00,46.1,46.1,29.77,East,92,0.0,11.3,100,0.08,,,0.35,VWS V14.01,2013-02-26 17:30:00,
2013-02-26 12:34:00,46.5,46.5,29.77,North,357,10.7,11.3,100,0.08,,-RA,0.35,VWS V14.01,2013-02-26 17:34:00,
2013-02-26 12:35:00,46.5,46.5,29.77,North,0,6.7,11.3,100,0.08,,,0.35,VWS V14.01,2013-02-26 17:35:00,
2013-02-26 12:39:00,47.0,47.0,29.74,NNE,14,8.1,11.3,100,0.04,,-RA,0.35,VWS V14.01,2013-02-26 17:39:00,
2013-02-26 12:40:00,47.0,47.0,29.74,NNW,343,10.7,11.3,100,0.08,,,0.39,VWS V14.01,2013-02-26 17:40:00,
2013-02-26 12:44:00,47.6,47.6,29.74,NNE,23,0.0,15.5,100,0.08,,-RA,0.39,VWS V14.01,2013-02-26 17:44:00,
2013-02-26 12:45:00,47.7,47.7,29.74,North,357,12.1,15.5,100,0.08,,,0.39,VWS V14.01,2013-02-26 17:45:00,
2013-02-26 12:49:00,47.9,47.9,29.74,NE,54,8.1,12.7,100,0.08,,-RA,0.39,VWS V14.01,2013-02-26 17:49:00,
2013-02-26 12:50:00,48.1,48.1,29.74,NE,54,8.1,12.7,100,0.08,,,0.39,VWS V14.01,2013-02-26 17:50:00,
2013-02-26 12:54:00,48.1,48.1,29.74,West,263,0.0,15.5,100,0.08,,-RA,0.39,VWS V14.01,2013-02-26 17:54:00,
2013-02-26 12:55:00,48.3,48.3,29.74,North,9,10.7,15.5,100,0.08,,,0.39,VWS V14.01,2013-02-26 17:55:00,
2013-02-26 12:59:00,48.5,48.5,29.74,NNE,21,8.1,11.3,100,0.08,,-RA,0.39,VWS V14.01,2013-02-26 17:59:00,
2013-02-26 13:00:00,48.5,48.5,29.74,North,350,0.0,11.3,100,0.08,,,0.39,VWS V14.01,2013-02-26 18:00:00,
2013-02-26 13:04:00,48.6,48.6,29.74,NNE,16,0.0,0.0,100,0.08,,-RA,0.39,VWS V14.01,2013-02-26 18:04:00,
2013-02-26 13:05:00,48.6,48.6,29.74,NE,35,0.0,7.0,100,0.08,,,0.39,VWS V14.01,2013-02-26 18:05:00,
2013-02-26 13:09:00,48.8,48.8,29.74,North,0,9.4,12.7,100,0.08,,-RA,0.39,VWS V14.01,2013-02-26 18:09:00,
2013-02-26 13:10:00,48.8,48.8,29.74,North,3,9.4,12.7,100,0.08,,,0.39,VWS V14.01,2013-02-26 18:10:00,
2013-02-26 13:14:00,49.0,49.0,29.71,East,90,0.0,9.9,100,0.08,,-RA,0.39,VWS V14.01,2013-02-26 18:14:00,
2013-02-26 13:15:00,49.0,49.0,29.71,East,90,0.0,9.9,100,0.08,,,0.39,VWS V14.01,2013-02-26 18:15:00,
2013-02-26 13:19:00,49.2,49.2,29.71,North,7,6.7,8.5,100,0.08,,-RA,0.39,VWS V14.01,2013-02-26 18:19:00,
2013-02-26 13:20:00,49.2,49.2,29.71,NE,51,18.8,19.7,100,0.08,,,0.39,VWS V14.01,2013-02-26 18:20:00,
2013-02-26 13:24:00,49.4,49.4,29.71,NNE,33,8.1,19.7,100,0.08,,-RA,0.39,VWS V14.01,2013-02-26 18:24:00,
2013-02-26 13:25:00,49.5,49.5,29.71,North,3,0.0,19.7,100,0.08,,,0.39,VWS V14.01,2013-02-26 18:25:00,
2013-02-26 13:29:00,49.5,49.5,29.71,NW,322,10.7,16.9,100,0.04,,-RA,0.39,VWS V14.01,2013-02-26 18:29:00,
2013-02-26 13:30:00,49.5,49.5,29.71,North,9,6.7,16.9,100,0.04,,,0.39,VWS V14.01,2013-02-26 18:30:00,
2013-02-26 13:34:00,49.7,49.7,29.71,NW,325,8.1,12.7,100,0.04,,-RA,0.39,VWS V14.01,2013-02-26 18:34:00,
2013-02-26 13:35:00,49.7,49.7,29.71,West,260,8.1,12.7,100,0.04,,,0.39,VWS V14.01,2013-02-26 18:35:00,
2013-02-26 13:39:00,49.9,49.9,29.71,North,4,9.4,12.7,100,0.04,,-RA,0.39,VWS V14.01,2013-02-26 18:39:00,
2013-02-26 13:40:00,49.9,49.9,29.71,North,4,9.4,12.7,100,0.04,,,0.39,VWS V14.01,2013-02-26 18:40:00,
2013-02-26 13:44:00,50.1,50.1,29.68,North,353,12.1,12.7,100,0.00,,-RA,0.39,VWS V14.01,2013-02-26 18:44:00,
2013-02-26 13:45:00,50.1,50.1,29.68,West,267,12.1,12.7,100,0.00,,,0.39,VWS V14.01,2013-02-26 18:45:00,
2013-02-26 13:49:00,50.3,50.3,29.68,NNE,30,6.7,15.5,100,0.00,,-RA,0.39,VWS V14.01,2013-02-26 18:49:00,
2013-02-26 13:50:00,50.3,50.3,29.68,NNE,30,6.7,15.5,100,0.00,,,0.39,VWS V14.01,2013-02-26 18:50:00,
2013-02-26 13:54:00,50.4,50.4,29.65,East,98,6.7,27.5,100,0.00,,-RA,0.39,VWS V14.01,2013-02-26 18:54:00,
2013-02-26 13:55:00,50.4,50.4,29.65,East,98,6.7,27.5,100,0.00,,,0.39,VWS V14.01,2013-02-26 18:55:00,
2013-02-26 13:59:00,50.8,50.8,29.65,West,275,8.1,15.5,100,0.04,,-RA,0.43,VWS V14.01,2013-02-26 18:59:00,
2013-02-26 14:00:00,50.8,50.8,29.65,North,353,0.0,15.5,100,0.04,,,0.43,VWS V14.01,2013-02-26 19:00:00,
2013-02-26 14:04:00,51.0,51.0,29.65,ENE,73,8.1,18.3,100,0.04,,RA,0.43,VWS V14.01,2013-02-26 19:04:00,
2013-02-26 14:05:00,51.0,51.0,29.65,ENE,73,8.1,18.3,100,0.04,,,0.43,VWS V14.01,2013-02-26 19:05:00,
2013-02-26 14:09:00,51.2,51.2,29.65,NNE,31,22.8,24.0,100,0.04,,RA,0.43,VWS V14.01,2013-02-26 19:09:00,
2013-02-26 14:10:00,51.2,51.2,29.65,NNE,31,22.8,24.0,100,0.04,,,0.43,VWS V14.01,2013-02-26 19:10:00,
2013-02-26 14:15:00,51.3,51.3,29.65,NE,39,8.1,24.0,100,0.04,,RA,0.43,VWS V14.01,2013-02-26 19:15:00,
2013-02-26 14:20:00,51.5,51.5,29.65,WNW,294,10.7,11.3,100,0.04,,RA,0.43,VWS V14.01,2013-02-26 19:20:00,
2013-02-26 14:25:00,51.7,51.7,29.65,North,357,10.7,18.3,100,0.04,,RA,0.43,VWS V14.01,2013-02-26 19:25:00,
2013-02-26 14:30:00,51.9,51.9,29.65,ENE,57,14.8,15.5,100,0.04,,RA,0.43,VWS V14.01,2013-02-26 19:30:00,
2013-02-26 14:35:00,52.1,52.1,29.65,ENE,57,0.0,16.9,100,0.04,,RA,0.43,VWS V14.01,2013-02-26 19:35:00,
2013-02-26 14:40:00,52.1,52.1,29.62,NNW,343,0.0,11.3,100,0.04,,RA,0.43,VWS V14.01,2013-02-26 19:40:00,
2013-02-26 14:45:00,52.1,52.1,29.62,NNE,24,0.0,8.5,100,0.04,,RA,0.43,VWS V14.01,2013-02-26 19:45:00,
2013-02-26 14:50:00,52.2,52.2,29.62,ENE,75,0.0,0.0,100,0.04,,RA,0.43,VWS V14.01,2013-02-26 19:50:00,
2013-02-26 14:55:00,52.2,52.2,29.62,South,170,0.0,0.0,100,0.04,,RA,0.43,VWS V14.01,2013-02-26 19:55:00,
2013-02-26 15:00:00,52.4,52.4,29.62,East,82,0.0,16.9,100,0.00,,RA,0.43,VWS V14.01,2013-02-26 20:00:00,
2013-02-26 15:05:00,52.4,52.4,29.62,ENE,67,0.0,0.0,100,0.00,,-RA,0.43,VWS V14.01,2013-02-26 20:05:00,
2013-02-26 15:10:00,52.6,52.6,29.59,NNW,342,0.0,8.5,100,0.00,,-RA,0.43,VWS V14.01,2013-02-26 20:10:00,
2013-02-26 15:15:00,53.0,53.0,29.59,East,97,0.0,0.0,100,0.00,,-RA,0.43,VWS V14.01,2013-02-26 20:15:00,
2013-02-26 15:20:00,53.3,53.3,29.59,North,11,0.0,9.9,100,0.00,,,0.43,VWS V14.01,2013-02-26 20:20:00,
2013-02-26 15:21:00,53.3,53.3,29.59,NNE,24,0.0,0.0,100,0.00,,-RA,0.43,VWS V14.01,2013-02-26 20:21:00,
2013-02-26 15:25:00,53.5,53.5,29.59,North,357,0.0,16.9,100,0.00,,,0.43,VWS V14.01,2013-02-26 20:25:00,
2013-02-26 15:26:00,53.5,53.5,29.59,NE,38,0.0,0.0,100,0.00,,-RA,0.43,VWS V14.01,2013-02-26 20:26:00,
2013-02-26 15:30:00,53.7,53.7,29.59,NNE,12,8.1,8.5,100,0.00,,,0.43,VWS V14.01,2013-02-26 20:30:00,
2013-02-26 15:31:00,53.7,53.7,29.59,NNE,14,0.0,8.5,100,0.00,,-RA,0.43,VWS V14.01,2013-02-26 20:31:00,
2013-02-26 15:35:00,53.7,53.7,29.59,North,357,6.7,8.5,100,0.00,,,0.43,VWS V14.01,2013-02-26 20:35:00,
2013-02-26 15:36:00,53.7,53.7,29.59,SSE,167,0.0,7.0,100,0.00,,-RA,0.43,VWS V14.01,2013-02-26 20:36:00,
2013-02-26 15:40:00,53.9,53.9,29.56,SSE,157,0.0,7.0,100,0.00,,,0.43,VWS V14.01,2013-02-26 20:40:00,
2013-02-26 15:41:00,53.9,53.9,29.56,SSE,157,0.0,0.0,100,0.00,,-RA,0.43,VWS V14.01,2013-02-26 20:41:00,
2013-02-26 15:46:00,54.0,54.0,29.56,NNE,29,0.0,0.0,100,0.00,,-RA,0.43,VWS V14.01,2013-02-26 20:46:00,
2013-02-26 15:50:00,54.4,54.4,29.56,NNW,346,0.0,0.0,100,0.00,,,0.43,VWS V14.01,2013-02-26 20:50:00,
2013-02-26 15:51:00,54.4,54.4,29.56,NNW,346,0.0,0.0,100,0.00,,-RA,0.43,VWS V14.01,2013-02-26 20:51:00,
2013-02-26 15:55:00,54.6,54.6,29.56,East,95,6.7,11.3,100,0.00,,,0.43,VWS V14.01,2013-02-26 20:55:00,
2013-02-26 15:56:00,54.6,54.6,29.56,East,95,0.0,7.0,100,0.00,,-RA,0.43,VWS V14.01,2013-02-26 20:56:00,
2013-02-26 16:00:00,54.8,54.8,29.56,WSW,258,0.0,7.0,100,0.00,,,0.43,VWS V14.01,2013-02-26 21:00:00,
2013-02-26 16:01:00,54.8,54.8,29.56,NW,317,0.0,0.0,100,0.00,,OVC014,0.43,VWS V14.01,2013-02-26 21:01:00,
2013-02-26 16:05:00,54.9,54.9,29.56,NE,55,0.0,0.0,100,0.00,,,0.43,VWS V14.01,2013-02-26 21:05:00,
2013-02-26 16:06:00,54.9,54.9,29.56,NE,55,0.0,0.0,100,0.00,,OVC014,0.43,VWS V14.01,2013-02-26 21:06:00,
2013-02-26 16:10:00,55.1,55.1,29.56,NW,312,0.0,0.0,100,0.00,,,0.43,VWS V14.01,2013-02-26 21:10:00,
2013-02-26 16:11:00,55.3,55.3,29.56,North,7,9.4,9.9,100,0.00,,OVC014,0.43,VWS V14.01,2013-02-26 21:11:00,
2013-02-26 16:15:00,55.3,55.3,29.56,NW,314,0.0,11.3,100,0.00,,,0.43,VWS V14.01,2013-02-26 21:15:00,
2013-02-26 16:16:00,55.5,55.5,29.56,North,9,0.0,0.0,100,0.00,,OVC014,0.43,VWS V14.01,2013-02-26 21:16:00,
2013-02-26 16:20:00,55.5,55.5,29.56,NNE,27,0.0,7.0,100,0.00,,,0.43,VWS V14.01,2013-02-26 21:20:00,
2013-02-26 16:21:00,55.5,55.5,29.56,North,6,0.0,0.0,100,0.00,,OVC014,0.43,VWS V14.01,2013-02-26 21:21:00,
2013-02-26 16:25:00,55.7,55.7,29.56,NE,44,0.0,0.0,100,0.00,,,0.43,VWS V14.01,2013-02-26 21:25:00,
2013-02-26 16:26:00,55.7,55.7,29.56,NE,43,0.0,0.0,100,0.00,,OVC014,0.43,VWS V14.01,2013-02-26 21:26:00,
2013-02-26 16:30:00,55.7,55.7,29.56,NE,45,0.0,0.0,100,0.04,,,0.47,VWS V14.01,2013-02-26 21:30:00,
2013-02-26 16:31:00,55.7,55.7,29.56,NNE,15,0.0,0.0,100,0.04,,OVC014,0.47,VWS V14.01,2013-02-26 21:31:00,
2013-02-26 16:35:00,55.7,55.7,29.56,NNE,15,0.0,0.0,100,0.04,,,0.47,VWS V14.01,2013-02-26 21:35:00,
2013-02-26 16:36:00,55.8,55.8,29.56,North,7,0.0,0.0,100,0.04,,OVC014,0.47,VWS V14.01,2013-02-26 21:36:00,
2013-02-26 16:40:00,55.8,55.8,29.56,North,8,0.0,0.0,100,0.04,,,0.47,VWS V14.01,2013-02-26 21:40:00,
2013-02-26 16:41:00,55.8,55.8,29.56,West,273,6.7,7.0,100,0.04,,OVC014,0.47,VWS V14.01,2013-02-26 21:41:00,
2013-02-26 16:45:00,55.8,55.8,29.56,NNE,24,0.0,11.3,100,0.04,,,0.47,VWS V14.01,2013-02-26 21:45:00,
2013-02-26 16:46:00,55.8,55.8,29.56,NNE,24,0.0,0.0,100,0.04,,OVC014,0.47,VWS V14.01,2013-02-26 21:46:00,
2013-02-26 16:50:00,55.8,55.8,29.56,North,357,0.0,0.0,100,0.04,,,0.47,VWS V14.01,2013-02-26 21:50:00,
2013-02-26 16:52:00,55.8,55.8,29.56,NE,36,0.0,0.0,100,0.04,,OVC014,0.47,VWS V14.01,2013-02-26 21:52:00,
2013-02-26 16:55:00,56.0,56.0,29.56,NNW,346,0.0,0.0,100,0.04,,,0.47,VWS V14.01,2013-02-26 21:55:00,
2013-02-26 16:57:00,56.0,56.0,29.53,NNW,346,0.0,0.0,100,0.04,,OVC014,0.47,VWS V14.01,2013-02-26 21:57:00,
2013-02-26 17:00:00,56.0,56.0,29.53,NNW,346,0.0,0.0,100,0.04,,,0.47,VWS V14.01,2013-02-26 22:00:00,
2013-02-26 17:02:00,56.0,56.0,29.53,NNW,346,0.0,0.0,100,0.04,,-RA,0.47,VWS V14.01,2013-02-26 22:02:00,
2013-02-26 17:05:00,56.2,56.2,29.53,NNW,346,0.0,0.0,100,0.04,,,0.47,VWS V14.01,2013-02-26 22:05:00,
2013-02-26 17:07:00,56.2,56.2,29.53,North,8,0.0,0.0,100,0.04,,-RA,0.47,VWS V14.01,2013-02-26 22:07:00,
2013-02-26 17:10:00,56.2,56.2,29.53,North,8,0.0,0.0,100,0.04,,,0.47,VWS V14.01,2013-02-26 22:10:00,
2013-02-26 17:12:00,56.2,56.2,29.53,North,8,0.0,0.0,100,0.04,,-RA,0.47,VWS V14.01,2013-02-26 22:12:00,
2013-02-26 17:15:00,56.4,56.4,29.53,North,8,0.0,0.0,100,0.04,,,0.47,VWS V14.01,2013-02-26 22:15:00,
2013-02-26 17:17:00,56.4,56.4,29.53,North,8,0.0,0.0,100,0.04,,-RA,0.47,VWS V14.01,2013-02-26 22:17:00,
2013-02-26 17:20:00,56.4,56.4,29.53,North,8,0.0,0.0,100,0.04,,,0.47,VWS V14.01,2013-02-26 22:20:00,
2013-02-26 17:22:00,56.6,56.6,29.53,North,8,0.0,0.0,100,0.04,,-RA,0.47,VWS V14.01,2013-02-26 22:22:00,
2013-02-26 17:25:00,56.6,56.6,29.53,North,8,0.0,0.0,100,0.04,,,0.47,VWS V14.01,2013-02-26 22:25:00,
2013-02-26 17:27:00,56.6,56.6,29.53,North,8,0.0,0.0,100,0.04,,-RA,0.47,VWS V14.01,2013-02-26 22:27:00,
2013-02-26 17:30:00,56.6,56.6,29.53,North,8,0.0,0.0,100,0.04,,,0.47,VWS V14.01,2013-02-26 22:30:00,
2013-02-26 17:33:00,56.6,56.6,29.53,North,8,0.0,0.0,100,0.00,,-RA,0.47,VWS V14.01,2013-02-26 22:33:00,
2013-02-26 17:35:00,56.6,56.6,29.53,North,8,0.0,0.0,100,0.00,,,0.47,VWS V14.01,2013-02-26 22:35:00,
2013-02-26 17:38:00,56.6,56.6,29.53,North,8,0.0,0.0,100,0.00,,-RA,0.47,VWS V14.01,2013-02-26 22:38:00,
2013-02-26 17:40:00,56.7,56.7,29.56,South,180,0.0,0.0,100,0.00,,,0.47,VWS V14.01,2013-02-26 22:40:00,
2013-02-26 17:43:00,56.7,56.7,29.56,South,182,0.0,11.3,100,0.00,,-RA,0.47,VWS V14.01,2013-02-26 22:43:00,
2013-02-26 17:45:00,56.7,56.7,29.56,ENE,65,0.0,11.3,100,0.00,,,0.47,VWS V14.01,2013-02-26 22:45:00,
2013-02-26 17:48:00,56.6,56.6,29.56,NNE,32,0.0,0.0,100,0.00,,,0.47,VWS V14.01,2013-02-26 22:48:00,
2013-02-26 17:50:00,56.6,56.6,29.56,NNE,32,0.0,0.0,100,0.00,,,0.47,VWS V14.01,2013-02-26 22:50:00,
2013-02-26 17:53:00,56.9,56.9,29.56,NNE,32,0.0,0.0,100,0.00,,,0.47,VWS V14.01,2013-02-26 22:53:00,
2013-02-26 17:55:00,56.9,56.9,29.56,NNE,32,0.0,0.0,100,0.00,,,0.47,VWS V14.01,2013-02-26 22:55:00,
2013-02-26 17:58:00,57.1,57.1,29.56,NNE,32,0.0,0.0,100,0.00,,,0.47,VWS V14.01,2013-02-26 22:58:00,
2013-02-26 18:00:00,56.9,56.9,29.56,NE,51,0.0,0.0,100,0.00,,,0.47,VWS V14.01,2013-02-26 23:00:00,
2013-02-26 18:03:00,56.9,56.9,29.56,NE,51,0.0,0.0,100,0.00,,,0.47,VWS V14.01,2013-02-26 23:03:00,
2013-02-26 18:05:00,56.9,56.9,29.56,NE,51,0.0,0.0,100,0.00,,,0.47,VWS V14.01,2013-02-26 23:05:00,
2013-02-26 18:08:00,56.7,56.7,29.56,NE,51,0.0,0.0,100,0.00,,,0.47,VWS V14.01,2013-02-26 23:08:00,
2013-02-26 18:10:00,56.7,56.7,29.56,NE,51,0.0,0.0,100,0.00,,,0.47,VWS V14.01,2013-02-26 23:10:00,
2013-02-26 18:13:00,56.6,56.6,29.56,NE,51,0.0,0.0,100,0.00,,,0.47,VWS V14.01,2013-02-26 23:13:00,
2013-02-26 18:15:00,56.6,56.6,29.56,ENE,60,0.0,0.0,100,0.00,,,0.47,VWS V14.01,2013-02-26 23:15:00,
2013-02-26 18:19:00,56.6,56.6,29.56,ENE,60,0.0,0.0,100,0.00,,,0.47,VWS V14.01,2013-02-26 23:19:00,
2013-02-26 18:20:00,56.6,56.6,29.56,ENE,60,0.0,0.0,100,0.00,,,0.47,VWS V14.01,2013-02-26 23:20:00,
2013-02-26 18:24:00,56.4,56.4,29.56,ENE,60,0.0,0.0,100,0.00,,,0.47,VWS V14.01,2013-02-26 23:24:00,
2013-02-26 18:25:00,56.4,56.4,29.56,ENE,58,0.0,0.0,100,0.00,,,0.47,VWS V14.01,2013-02-26 23:25:00,
2013-02-26 18:29:00,56.4,56.4,29.56,ENE,58,0.0,0.0,100,0.00,,,0.47,VWS V14.01,2013-02-26 23:29:00,
2013-02-26 18:30:00,56.4,56.4,29.56,ENE,58,0.0,0.0,100,0.00,,,0.47,VWS V14.01,2013-02-26 23:30:00,
2013-02-26 18:34:00,56.4,56.4,29.56,ENE,58,0.0,0.0,100,0.00,,,0.47,VWS V14.01,2013-02-26 23:34:00,
2013-02-26 18:35:00,56.4,56.4,29.56,ENE,58,0.0,0.0,100,0.00,,,0.47,VWS V14.01,2013-02-26 23:35:00,
2013-02-26 18:39:00,56.4,56.4,29.56,ENE,58,0.0,0.0,100,0.00,,,0.47,VWS V14.01,2013-02-26 23:39:00,
2013-02-26 18:40:00,56.6,56.6,29.56,ENE,58,0.0,0.0,100,0.00,,,0.47,VWS V14.01,2013-02-26 23:40:00,
2013-02-26 18:44:00,56.6,56.6,29.56,ENE,58,0.0,0.0,100,0.00,,,0.47,VWS V14.01,2013-02-26 23:44:00,
2013-02-26 18:45:00,56.6,56.6,29.56,ENE,58,0.0,0.0,100,0.00,,,0.47,VWS V14.01,2013-02-26 23:45:00,
2013-02-26 18:49:00,56.6,56.6,29.56,ENE,58,0.0,0.0,100,0.00,,,0.47,VWS V14.01,2013-02-26 23:49:00,
2013-02-26 18:50:00,56.6,56.6,29.56,ENE,58,0.0,0.0,100,0.00,,,0.47,VWS V14.01,2013-02-26 23:50:00,
2013-02-26 18:54:00,56.4,56.4,29.56,ENE,58,0.0,0.0,100,0.00,,,0.47,VWS V14.01,2013-02-26 23:54:00,
2013-02-26 18:55:00,56.4,56.4,29.56,ENE,58,0.0,0.0,100,0.00,,,0.47,VWS V14.01,2013-02-26 23:55:00,
2013-02-26 19:00:00,56.2,56.2,29.56,ENE,58,0.0,0.0,100,0.00,,,0.47,VWS V14.01,2013-02-27 00:00:00,
2013-02-26 19:05:00,56.0,56.0,29.56,ENE,58,0.0,0.0,100,0.00,,,0.47,VWS V14.01,2013-02-27 00:05:00,
2013-02-26 19:10:00,56.0,56.0,29.56,ENE,58,0.0,0.0,100,0.00,,,0.47,VWS V14.01,2013-02-27 00:10:00,
2013-02-26 19:15:00,55.8,55.8,29.56,ENE,58,0.0,0.0,100,0.00,,,0.47,VWS V14.01,2013-02-27 00:15:00,
2013-02-26 19:20:00,55.8,55.8,29.56,ENE,58,0.0,0.0,100,0.00,,,0.47,VWS V14.01,2013-02-27 00:20:00,
2013-02-26 19:25:00,55.8,55.8,29.56,ENE,58,0.0,0.0,100,0.00,,,0.47,VWS V14.01,2013-02-27 00:25:00,
2013-02-26 19:30:00,55.7,55.7,29.56,ENE,58,0.0,0.0,100,0.00,,,0.47,VWS V14.01,2013-02-27 00:30:00,
2013-02-26 19:35:00,55.7,55.7,29.56,ENE,58,0.0,0.0,100,0.00,,,0.47,VWS V14.01,2013-02-27 00:35:00,
2013-02-26 19:40:00,55.5,55.5,29.56,ENE,58,0.0,0.0,100,0.00,,,0.47,VWS V14.01,2013-02-27 00:40:00,
2013-02-26 19:45:00,55.5,55.5,29.56,ENE,58,0.0,0.0,100,0.00,,,0.47,VWS V14.01,2013-02-27 00:45:00,
2013-02-26 19:54:00,55.3,55.3,29.56,ENE,58,0.0,0.0,100,0.00,,,0.47,VWS V14.01,2013-02-27 00:54:00,
2013-02-26 19:59:00,55.1,55.1,29.56,ENE,58,0.0,0.0,100,0.00,,,0.47,VWS V14.01,2013-02-27 00:59:00,
2013-02-26 20:04:00,54.9,54.9,29.56,ENE,58,0.0,0.0,100,0.00,,,0.47,VWS V14.01,2013-02-27 01:04:00,
2013-02-26 20:09:00,54.8,54.8,29.59,ENE,58,0.0,0.0,100,0.00,,,0.47,VWS V14.01,2013-02-27 01:09:00,
2013-02-26 20:14:00,54.6,54.6,29.59,ENE,58,0.0,0.0,100,0.00,,,0.47,VWS V14.01,2013-02-27 01:14:00,
2013-02-26 20:19:00,54.4,54.4,29.59,ENE,58,0.0,0.0,100,0.00,,,0.47,VWS V14.01,2013-02-27 01:19:00,
2013-02-26 20:24:00,54.6,54.6,29.59,ENE,58,0.0,0.0,100,0.00,,,0.47,VWS V14.01,2013-02-27 01:24:00,
2013-02-26 20:29:00,54.4,54.4,29.59,ENE,58,0.0,0.0,100,0.00,,,0.47,VWS V14.01,2013-02-27 01:29:00,
2013-02-26 20:34:00,54.2,54.2,29.59,ENE,58,0.0,0.0,100,0.00,,,0.47,VWS V14.01,2013-02-27 01:34:00,
2013-02-26 20:40:00,54.0,54.0,29.59,ENE,58,0.0,0.0,100,0.00,,,0.47,VWS V14.01,2013-02-27 01:40:00,
2013-02-26 20:45:00,53.9,53.9,29.59,ENE,58,0.0,0.0,100,0.00,,,0.47,VWS V14.01,2013-02-27 01:45:00,
2013-02-26 20:50:00,53.9,53.9,29.59,ENE,58,0.0,0.0,100,0.00,,,0.47,VWS V14.01,2013-02-27 01:50:00,
2013-02-26 20:55:00,54.2,54.2,29.62,ENE,58,0.0,0.0,100,0.00,,,0.47,VWS V14.01,2013-02-27 01:55:00,
2013-02-26 21:00:00,54.6,54.6,29.62,ENE,59,0.0,0.0,100,0.00,,,0.47,VWS V14.01,2013-02-27 02:00:00,
2013-02-26 21:05:00,54.4,54.4,29.62,SSE,165,8.1,11.3,100,0.00,,,0.47,VWS V14.01,2013-02-27 02:05:00,
2013-02-26 21:10:00,53.5,53.5,29.62,SSE,163,6.7,9.9,100,0.00,,,0.47,VWS V14.01,2013-02-27 02:10:00,
2013-02-26 21:16:00,53.1,53.1,29.62,South,178,0.0,0.0,100,0.00,,,0.47,VWS V14.01,2013-02-27 02:16:00,
2013-02-26 21:21:00,52.8,52.8,29.62,SSE,159,0.0,11.3,100,0.00,,,0.47,VWS V14.01,2013-02-27 02:21:00,
2013-02-26 21:26:00,52.8,52.5,29.62,South,178,8.1,8.5,99,0.00,,,0.47,VWS V14.01,2013-02-27 02:26:00,
2013-02-26 21:31:00,52.4,51.0,29.62,SSE,163,8.1,8.5,95,0.00,,,0.47,VWS V14.01,2013-02-27 02:31:00,
2013-02-26 21:36:00,52.2,50.3,29.62,SSE,166,0.0,0.0,93,0.00,,,0.47,VWS V14.01,2013-02-27 02:36:00,
2013-02-26 21:41:00,51.9,49.3,29.62,SSE,163,0.0,0.0,91,0.00,,,0.47,VWS V14.01,2013-02-27 02:41:00,
2013-02-26 21:46:00,51.7,49.5,29.62,SSE,163,0.0,0.0,92,0.00,,,0.47,VWS V14.01,2013-02-27 02:46:00,
2013-02-26 21:51:00,51.3,49.1,29.62,SSW,192,0.0,0.0,92,0.00,,,0.47,VWS V14.01,2013-02-27 02:51:00,
2013-02-26 21:56:00,51.0,48.5,29.62,South,175,0.0,0.0,91,0.00,,,0.47,VWS V14.01,2013-02-27 02:56:00,
2013-02-26 22:01:00,51.3,50.2,29.62,South,175,0.0,0.0,96,0.00,,BKN055,0.47,VWS V14.01,2013-02-27 03:01:00,
2013-02-26 22:06:00,51.3,51.1,29.62,South,175,0.0,0.0,99,0.00,,BKN055,0.47,VWS V14.01,2013-02-27 03:06:00,
2013-02-26 22:11:00,51.2,50.9,29.62,South,175,0.0,0.0,99,0.00,,BKN055,0.47,VWS V14.01,2013-02-27 03:11:00,
2013-02-26 22:17:00,50.8,50.5,29.62,South,175,0.0,0.0,99,0.00,,BKN055,0.47,VWS V14.01,2013-02-27 03:17:00,
2013-02-26 22:22:00,50.4,50.4,29.62,SSW,203,0.0,0.0,100,0.00,,BKN055,0.47,VWS V14.01,2013-02-27 03:22:00,
2013-02-26 22:27:00,50.1,50.1,29.62,SSW,203,0.0,0.0,100,0.00,,BKN055,0.47,VWS V14.01,2013-02-27 03:27:00,
2013-02-26 22:32:00,49.5,49.3,29.62,South,171,0.0,0.0,99,0.00,,BKN055,0.47,VWS V14.01,2013-02-27 03:32:00,
2013-02-26 22:37:00,49.2,48.9,29.62,South,171,0.0,0.0,99,0.00,,BKN055,0.47,VWS V14.01,2013-02-27 03:37:00,
2013-02-26 22:42:00,48.8,48.5,29.62,South,173,0.0,0.0,99,0.00,,BKN055,0.47,VWS V14.01,2013-02-27 03:42:00,
2013-02-26 22:47:00,48.6,48.6,29.62,South,173,0.0,0.0,100,0.00,,BKN055,0.47,VWS V14.01,2013-02-27 03:47:00,
2013-02-26 22:52:00,48.5,48.5,29.62,South,173,0.0,0.0,100,0.00,,BKN055,0.47,VWS V14.01,2013-02-27 03:52:00,
2013-02-26 22:58:00,48.1,48.1,29.62,South,173,0.0,0.0,100,0.00,,BKN055,0.47,VWS V14.01,2013-02-27 03:58:00,
2013-02-26 23:03:00,47.9,47.9,29.62,South,173,0.0,0.0,100,0.00,,FEW035,0.47,VWS V14.01,2013-02-27 04:03:00,
2013-02-26 23:08:00,48.3,48.3,29.62,South,173,0.0,0.0,100,0.00,,FEW035,0.47,VWS V14.01,2013-02-27 04:08:00,
2013-02-26 23:13:00,48.5,48.5,29.62,South,173,0.0,0.0,100,0.00,,FEW035,0.47,VWS V14.01,2013-02-27 04:13:00,
2013-02-26 23:18:00,48.3,48.3,29.62,South,173,0.0,0.0,100,0.00,,FEW035,0.47,VWS V14.01,2013-02-27 04:18:00,
2013-02-26 23:23:00,47.7,47.7,29.62,South,173,0.0,0.0,100,0.00,,FEW035,0.47,VWS V14.01,2013-02-27 04:23:00,
2013-02-26 23:28:00,47.4,47.4,29.62,South,173,0.0,0.0,100,0.00,,FEW035,0.47,VWS V14.01,2013-02-27 04:28:00,
2013-02-26 23:33:00,47.0,47.0,29.62,South,173,0.0,0.0,100,0.00,,FEW035,0.47,VWS V14.01,2013-02-27 04:33:00,
2013-02-26 23:38:00,46.8,46.8,29.62,South,173,0.0,0.0,100,0.00,,FEW035,0.47,VWS V14.01,2013-02-27 04:38:00,
2013-02-26 23:43:00,46.5,46.5,29.62,South,173,0.0,0.0,100,0.00,,FEW035,0.47,VWS V14.01,2013-02-27 04:43:00,
2013-02-26 23:48:00,46.1,46.1,29.62,South,173,0.0,0.0,100,0.00,,FEW035,0.47,VWS V14.01,2013-02-27 04:48:00,
2013-02-26 23:53:00,45.9,45.9,29.59,South,173,0.0,0.0,100,0.00,,FEW035,0.47,VWS V14.01,2013-02-27 04:53:00,
2013-02-26 23:58:00,45.8,45.8,29.59,South,173,0.0,0.0,100,0.00,,FEW035,0.47,VWS V14.01,2013-02-27 04:58:00,